GW3608 Weather Reports


Display with metric or nautical units.
time (UTC)temp
F
wind
direction
speed
MPH
gust
MPH
rain 1hr
in
rain 24hr
in
rain mn
in
humidity
%
barometer
mb
20260507124526 42 5 1.0 5.0 0.00 0.31 0.00 72 1012.4
20260507123013 41 30 1.0 5.0 0.00 0.33 0.00 71 1012.6
20260507121516 41 314 0.0 5.0 0.00 0.35 0.00 76 1012.3
20260507120036 40 76 0.0 3.0 0.00 0.36 0.00 79 1012.3
20260507114526 39 299 0.0 4.0 0.00 0.37 0.00 81 1012.2
20260507113038 39 34 0.0 3.0 0.00 0.37 0.00 83 1012.1
20260507111513 38 304 0.0 5.0 0.00 0.38 0.00 84 1012.0
20260507110017 37 336 0.0 4.0 0.00 0.38 0.00 87 1012.0
20260507104521 37 56 1.0 4.0 0.00 0.38 0.00 89 1012.0
20260507103023 36 5 0.0 3.0 0.00 0.39 0.00 90 1011.7
20260507101526 36 11 0.0 3.0 0.00 0.40 0.00 90 1011.7
20260507100023 36 14 0.0 2.0 0.00 0.40 0.00 90 1011.7
20260507094519 36 23 0.0 2.0 0.00 0.40 0.00 90 1011.6
20260507093024 36 352 0.0 1.0 0.00 0.40 0.00 89 1011.7
20260507091527 37 42 0.0 2.0 0.00 0.40 0.00 88 1011.7
20260507090026 37 30 0.0 1.0 0.00 0.41 0.00 87 1011.8
20260507084516 37 5 0.0 3.0 0.00 0.41 0.00 87 1011.8
20260507083023 38 333 0.0 3.0 0.00 0.42 0.00 86 1011.7
20260507081531 39 348 0.0 2.0 0.00 0.42 0.00 86 1011.8
20260507080025 39 27 1.0 5.0 0.00 0.42 0.00 86 1011.8
20260507074532 39 360 0.0 3.0 0.00 0.42 0.00 87 1011.7
20260507073018 40 43 0.0 5.0 0.00 0.42 0.00 87 1011.7
20260507071528 40 69 0.0 4.0 0.00 0.42 0.00 89 1011.8
20260507070026 41 25 0.0 4.0 0.00 0.42 0.00 90 1011.7
20260507064536 41 5 2.0 8.0 0.00 0.42 0.00 91 1011.6
20260507063030 41 344 2.0 5.0 0.00 0.42 0.00 92 1011.4
20260507061529 42 93 0.0 9.0 0.00 0.42 0.00 93 1011.3
20260507060022 42 352 0.0 8.0 0.00 0.42 0.00 94 1011.3
20260507054524 42 302 0.0 8.0 0.00 0.42 0.00 94 1011.1
20260507053033 43 89 2.0 7.0 0.00 0.42 0.00 94 1011.0
20260507051528 43 352 1.0 8.0 0.00 0.42 0.00 94 1011.3
20260507050032 43 286 0.0 2.0 0.00 0.42 0.00 95 1011.3
20260507044509 43 194 0.0 1.0 0.00 0.42 0.00 94 1011.3
20260507043009 43 228 0.0 0.0 0.00 0.42 0.00 94 1011.3
20260507041508 43 223 0.0 1.0 0.00 0.42 0.00 94 1011.0
20260507040013 43 352 0.0 1.0 0.00 0.42 0.00 94 1011.1
20260507034511 42 352 0.0 0.0 0.00 0.42 0.42 94 1010.9
20260507033010 42 352 0.0 1.0 0.00 0.42 0.42 94 1010.8
20260507031510 42 256 0.0 1.0 0.00 0.42 0.42 94 1011.2
20260507030014 42 256 0.0 1.0 0.00 0.42 0.42 94 1011.2
20260507024512 42 261 0.0 1.0 0.00 0.42 0.42 94 1011.4
20260507023012 43 261 0.0 1.0 0.00 0.42 0.42 94 1011.1
20260507021514 43 261 0.0 0.0 0.00 0.42 0.42 94 1011.7
20260507020012 43 261 0.0 0.0 0.00 0.42 0.42 94 1011.3
20260507014520 43 261 0.0 0.0 0.00 0.42 0.42 93 1011.5
20260507013015 43 261 0.0 0.0 0.00 0.42 0.42 93 1011.4
20260507011516 43 261 0.0 0.0 0.00 0.42 0.42 93 1011.6
20260507010028 43 261 0.0 0.0 0.00 0.42 0.42 93 1011.4
20260507004514 43 261 0.0 1.0 0.00 0.42 0.42 93 1011.3
20260507003019 43 261 0.0 2.0 0.00 0.42 0.42 93 1011.1
20260507001519 43 273 0.0 1.0 0.00 0.42 0.42 93 1011.0
20260507000018 44 273 0.0 1.0 0.00 0.42 0.42 93 1011.0
20260506234535 44 273 0.0 0.0 0.00 0.42 0.42 93 1010.7
20260506233019 44 276 0.0 1.0 0.00 0.42 0.42 93 1010.5
20260506231522 44 314 0.0 2.0 0.00 0.42 0.42 93 1010.5
20260506230024 44 21 0.0 1.0 0.00 0.42 0.42 93 1010.3
20260506224527 44 360 0.0 3.0 0.00 0.42 0.42 93 1010.3
20260506223023 44 203 0.0 6.0 0.00 0.42 0.42 93 1010.0
20260506221520 44 352 2.0 7.0 0.00 0.43 0.42 93 1009.9
20260506220033 45 300 2.0 4.0 0.00 0.43 0.42 93 1009.6
20260506214521 45 289 2.0 6.0 0.00 0.43 0.42 93 1009.7
20260506213022 45 288 2.0 9.0 0.00 0.43 0.42 93 1009.6
20260506211524 46 12 0.0 4.0 0.01 0.43 0.42 94 1009.2
20260506210022 46 344 0.0 4.0 0.01 0.43 0.42 94 1009.0
20260506204526 45 11 0.0 9.0 0.02 0.43 0.42 94 1008.7
20260506203026 46 300 1.0 8.0 0.03 0.43 0.42 94 1008.5
20260506201522 46 321 1.0 4.0 0.03 0.42 0.41 94 1008.0
20260506200026 47 9 0.0 8.0 0.03 0.42 0.41 94 1008.1
20260506194531 47 61 1.0 6.0 0.02 0.42 0.40 94 1007.9
20260506193008 47 324 0.0 10.0 0.01 0.41 0.39 94 1008.0
20260506191513 47 271 1.0 4.0 0.00 0.40 0.38 94 1007.7
20260506190015 47 42 0.0 7.0 0.00 0.40 0.38 94 1007.6
20260506184524 47 11 0.0 5.0 0.00 0.40 0.38 94 1007.4
20260506183019 48 337 1.0 5.0 0.00 0.40 0.38 94 1007.3
20260506181507 48 340 0.0 4.0 0.01 0.40 0.38 93 1007.1
20260506180015 50 360 1.0 5.0 0.01 0.40 0.38 93 1006.8
20260506174516 52 299 0.0 3.0 0.02 0.40 0.38 93 1006.5
20260506173024 54 283 0.0 8.0 0.02 0.40 0.38 94 1006.4
20260506171525 56 257 0.0 3.0 0.01 0.39 0.37 94 1006.3
20260506170009 56 193 0.0 2.0 0.02 0.39 0.37 94 1006.4
20260506164517 56 98 0.0 2.0 0.01 0.38 0.36 94 1006.5
20260506163022 56 265 0.0 2.0 0.02 0.38 0.36 94 1006.4
20260506161506 55 115 0.0 3.0 0.03 0.38 0.36 94 1006.3
20260506160007 55 81 0.0 2.0 0.04 0.37 0.35 94 1006.6
20260506154517 55 173 0.0 1.0 0.05 0.37 0.35 94 1006.6
20260506153019 55 168 0.0 3.0 0.06 0.36 0.34 94 1006.6
20260506151524 55 200 1.0 4.0 0.06 0.35 0.33 94 1006.8
20260506150006 55 157 0.0 3.0 0.05 0.33 0.31 94 1006.6
20260506144512 55 125 0.0 2.0 0.06 0.32 0.30 94 1006.4
20260506143015 55 132 0.0 3.0 0.06 0.30 0.28 94 1006.5
20260506141520 55 144 0.0 1.0 0.08 0.29 0.27 94 1006.6
20260506140024 54 134 0.0 1.0 0.10 0.28 0.26 94 1006.7
20260506134505 54 189 0.0 0.0 0.13 0.26 0.24 94 1006.9
20260506133015 54 207 0.0 2.0 0.13 0.24 0.22 94 1007.2
20260506131537 54 134 0.0 1.0 0.12 0.21 0.19 94 1007.4
20260506130033 54 188 0.0 3.0 0.10 0.18 0.16 94 1007.6